Regional Weather Roundup
Issued by NWS

Home | Current Version | Previous Version | Graphics & Text | Print | Product List | Glossary Off
Versions: 1 2 3 4 5 6 7 8 9 10 11 12 13 14 15 16 17 18 19 20 21 22 23 24 25 26 27 28 29 30 31 32 33 34 35 36 37 38 39 40 41 42 43 44 45 46 47 48 49 50

000
ASUS43 KMKX 271700
RWRWI

WISCONSIN REGIONAL WEATHER ROUNDUP
NATIONAL WEATHER SERVICE MILWAUKEE/SULLIVAN WI
1200 PM CDT MON APR 27 2015

NOTE: "FAIR" INDICATES FEW OR NO CLOUDS BELOW 12,000 FEET WITH NO
SIGNIFICANT WEATHER AND/OR OBSTRUCTIONS TO VISIBILITY.

WIZ001-002-006>008-014>016-023>028-271800-
NORTHWEST WISCONSIN

CITY           SKY/WX    TMP DP  RH WIND       PRES   REMARKS
SUPERIOR ARPT  SUNNY     56  31  38 E6        30.24S
ASHLAND        SUNNY     57  32  38 N9        30.23F
HAYWARD        SUNNY     60  27  28 NW8       30.21S
SIREN          SUNNY     60  26  27 CALM      30.23F
CUMBERLAND     SUNNY     57  28  33 NW8       30.23S
RICE LAKE      SUNNY     58  29  32 N8        30.23F
CHETEK         SUNNY     58  32  37 NW8       30.22S
LADYSMITH      SUNNY     59  29  32 N6        30.21S
EAU CLAIRE     NOT AVBL
MENOMONIE      SUNNY     58  29  32 NW7       30.22F
NEW RICHMOND   SUNNY     60  26  26 N6        30.24S
OSCEOLA        SUNNY     60  29  31 N9        30.26F
$$

WIZ003>005-009-010-017-018-271800-
NORTH CENTRAL WISCONSIN

CITY           SKY/WX    TMP DP  RH WIND       PRES   REMARKS
MANITOWISH WTR SUNNY     54  30  39 N9        30.17F
ARBOR VITAE    SUNNY     57  30  36 N15G23    30.16S
WOODRUFF       SUNNY     57  30  36 N15G23    30.16S
RHINELANDER    SUNNY     57  29  34 N13G18    30.15S
EAGLE RIVER    SUNNY     56  26  31 N15G23    30.14F
LAND O LAKES   SUNNY     55  27  33 N15       30.16S
PHILLIPS       SUNNY     55  29  37 N12       30.17F
TOMAHAWK       SUNNY     56  29  35 N9        30.16S
MEDFORD        SUNNY     56  31  38 N8G18     30.17S
MERRILL        SUNNY     57  31  36 N10G20    30.15S
$$

WIZ029-030-035-036-043>047-271800-
CENTRAL WISCONSIN

CITY           SKY/WX    TMP DP  RH WIND       PRES   REMARKS
WAUSAU         SUNNY     58  29  33 VRB5G21   30.14R
MOSINEE        SUNNY     57  30  35 NW5       30.16S
MARSHFIELD     SUNNY     59  32  36 NW14      30.17S
STEVENS POINT  SUNNY     56  30  36 NW12G18   30.16S
WAUPACA        SUNNY     60  29  30 N7        30.15S
WAUTOMA        NOT AVBL
WISC RAPIDS    SUNNY     60  29  30 N12G21    30.17F
CAMP DOUGLAS   NOT AVBL
$$

WIZ011>013-019>022-031-037>040-048>050-271800-
NORTHEAST WISCONSIN

CITY           SKY/WX    TMP DP  RH WIND       PRES   REMARKS
ANTIGO         SUNNY     55  32  41 N9        30.14S
SHAWANO        MOSUNNY   56  32  39 NE8       30.13S
OCONTO         SUNNY     52  35  52 E9        30.13R
STURGEON BAY   SUNNY     50  34  53 N13       30.15S
GREEN BAY      MOSUNNY   54  35  48 NE5       30.14S
MANITOWOC      NOT AVBL
APPLETON       MOSUNNY   55  30  38 N14       30.14S
CLINTONVILLE   SUNNY     57  30  35 N10G17    30.13S
OSHKOSH        SUNNY     55  36  48 NE9       30.14S
$$

WIZ032>034-041-042-053>061-271800-
SOUTHWEST WISCONSIN

CITY           SKY/WX    TMP DP  RH WIND       PRES   REMARKS
LA CROSSE      SUNNY     59  32  36 NW10      30.19F
SPARTA         SUNNY     58  29  32 NW6       30.19F
VIROQUA        SUNNY     55  31  39 N8G16     30.19S
BOSCOBEL       SUNNY     61  31  32 VRB5      30.18F
PRAIRIE DU CHI SUNNY     57  31  37 NW8       30.19S
PLATTEVILLE    SUNNY     56  32  40 N9        30.17F
$$

WIZ056-057-062-063-064-067-068-271800-
SOUTH CENTRAL WISCONSIN

CITY           SKY/WX    TMP DP  RH WIND       PRES   REMARKS
REEDSBURG      SUNNY     56  33  41 N6G16     30.16F
BARABOO/DELLS  SUNNY     57  29  34 N7G16     30.15F
LONE ROCK      NOT AVBL
MINERAL POINT  SUNNY     57  28  33 NW9G17    30.16F
MADISON        MOSUNNY   58  33  39 N13G18    30.14F
MIDDLETON      SUNNY     59  29  32 N10G18    30.15F
WATERTOWN      SUNNY     56  35  45 N12G17    30.13F
MONROE         SUNNY     55  32  41 N13G23    30.14F
JANESVILLE     MOSUNNY   57  28  33 N13       30.13F
$$

WIZ051-052-058>065-066-070>072-271800-
SOUTHEAST WISCONSIN

CITY           SKY/WX    TMP DP  RH WIND       PRES   REMARKS
MILWAUKEE      MOSUNNY   51  34  52 NE14      30.14S
WAUKESHA       MOSUNNY   54  34  47 N10G17    30.14S
MILWAUKEE/TIMM MOSUNNY   54  30  40 NE8       30.13S
RACINE         SUNNY     51  34  52 NE15      30.15F
BURLINGTON     MOSUNNY   54  33  44 N12G17    30.12F
KENOSHA        SUNNY     55  36  48 NE10      30.12F
FOND DU LAC    SUNNY     55  34  45 NE14      30.15S
SHEBOYGAN      MOSUNNY   52  36  54 NE14      30.14R
WEST BEND      MOSUNNY   54  32  43 NW9       30.13S
JUNEAU         SUNNY     54  33  44 N12G20    30.15S
$$

LSZ147-162-271800-
LAKE SUPERIOR

STATION/POSITION TIME  TEMP    WIND        PRES    WAVE
                       AIR SEA DIR/SP/G            HT/PER
                 (UTC) (F)     (DEG/KT/KT) (MB)    (FT/S)
W MID LAKE BUOY  1550   37 35  220/  2/  4 1025.3R   0
DEVILS ISLAND    1600   40     260/  3/  5 1024.7F
PORT WING        1600   39     300/  6/  6 1024.4
SAXON HARBOR     1600   42        CALM     1024.0
$$

LMZ867-665-643>646-271800-
LAKE MICHIGAN

STATION/POSITION TIME  TEMP    WIND        PRES    WAVE
                       AIR SEA DIR/SP/G            HT/PER
                 (UTC) (F)     (DEG/KT/KT) (MB)    (FT/S)
CHAMBERS ISLAND  1600   44      30/ 10/ 14 1020.7F
NORTHPORT PIER   1600   42     350/ 12/ 13 1020.7R
SISTER BAY       1517   45     360/ 11/ 14   N/A
KEWAUNEE LAKESHO 1600   44      40/  8/ 11 1019.4S
SHEBOYGAN LAKESH 1600   42      40/ 13/ 14 1021.2R
PORT WASHINGTON  1600   47      50/  8/ 12 1021.0R
MILWAUKEE LAKESH 1600   43      40/  6/  7   N/A
KENOSHA   LAKESH 1600   45      30/ 15/ 17 1020.7R
$$

TC  - TEMPERATURE IN CELSIUS
VSB - VISIBILITY IN STATUTE MILES
WCI - WIND CHILL INDEX
HX  - HEAT INDEX




USA.gov is the U.S. government's official web portal to all federal, state and local government web resources and services.